STARLINK-32285 (60355 NORAD) Tracking and Keplerian Element Data

This shows tracking and keplerian element data for the satellite.

Feedback or suggestion? Click here.




ElementValue
Catalog60355
NameSTARLINK-32285
Epoch Orbit1203
Epoch Day286.8448589
Epoch Year2024
RAAN177.0561
Inclination53.1597
Eccentricity0.0001259
Argument of Perigee40.7859
Mean Anonmoly319.324
Mean Motion15.39652861
Decay Rate-3.5E-06
L11 60355U 24138A 24286.84485890 -.00000350 00000+0 12460-5 0 9991
L22 60355 53.1597 177.0561 0001259 40.7859 319.3240 15.39652861 12032



Live tracking and technical data element details for STARLINK-32285 (NORAD 60355). STARLINK-32285 can be tracked NOW for your location showing map with azimuth and elevation plus other details from your city location.







IsCatalogInMostPopularTable: catalog: 60355, numindb: 8
Update: records affected: 1



GetName: 60355 STARLINK-32285

Hit Count: updated at: Wed, 04 Dec 2024 18:34:00 GMT